This is the latest recevied weather packets stored in our database for station/object S50APT-10. If no packets are shown the sender has not sent any weather packets the latest 10 day(s).
| Time | Temp. | Humidity | Pressure | Rain* | Wind** | Luminosity | Snow |
|---|---|---|---|---|---|---|---|
| 1777491696 | 6.67° C | 79% | 1025.8 hPa | - | - | - | - |
| 1777490796 | 6.67° C | 79% | 1025.5 hPa | - | - | - | - |
| 1777489895 | 6.67° C | 80% | 1025.4 hPa | - | - | - | - |
| 1777488995 | 6.67° C | 80% | 1025.2 hPa | - | - | - | - |
| 1777488093 | 6.67° C | 80% | 1025 hPa | - | - | - | - |
| 1777487191 | 7.22° C | 80% | 1024.8 hPa | - | - | - | - |
| 1777486291 | 7.22° C | 79% | 1024.7 hPa | - | - | - | - |
| 1777485390 | 7.78° C | 76% | 1024.5 hPa | - | - | - | - |
| 1777484489 | 8.89° C | 72% | 1024.5 hPa | - | - | - | - |
| 1777483588 | 9.44° C | 69% | 1024.4 hPa | - | - | - | - |
| 1777482687 | 10° C | 67% | 1024.2 hPa | - | - | - | - |
| 1777481786 | 9.44° C | 68% | 1024.2 hPa | - | - | - | - |
| 1777480886 | 10.56° C | 62% | 1024.2 hPa | - | - | - | - |
| 1777479985 | 11.11° C | 58% | 1024.2 hPa | - | - | - | - |
| 1777479084 | 11.11° C | 58% | 1024.3 hPa | - | - | - | - |
| 1777478184 | 10.56° C | 60% | 1024.4 hPa | - | - | - | - |
| 1777477284 | 11.67° C | 56% | 1024.4 hPa | - | - | - | - |
| 1777476383 | 11.11° C | 58% | 1024.4 hPa | - | - | - | - |
| 1777475483 | 12.78° C | 42% | 1024.5 hPa | - | - | - | - |
| 1777474582 | 14.44° C | 43% | 1024.6 hPa | - | - | - | - |
| 1777473682 | 14.44° C | 40% | 1024.6 hPa | - | - | - | - |
| 1777472781 | 13.89° C | 41% | 1024.6 hPa | - | - | - | - |
| 1777471880 | 13.89° C | 41% | 1024.6 hPa | - | - | - | - |
| 1777470980 | 14.44° C | 40% | 1024.6 hPa | - | - | - | - |
| 1777470079 | 13.89° C | 40% | 1024.6 hPa | - | - | - | - |
* Rain since midnight (hover to see other rain measurements)
** Current wind speed in m/s (hover to see current wind gust speed)